Regional Weather Roundup
Issued by NWS

Home | Current Version | Previous Version | Graphics & Text | Print | Product List | Glossary On
Versions: 1 2 3 4 5 6 7 8 9 10 11 12 13 14 15 16 17 18 19 20 21 22 23 24 25 26 27 28 29 30 31 32 33 34 35 36 37 38 39 40 41 42 43 44 45 46 47 48 49 50
000
ASUS43 KTOP 110108
RWRKS

WEATHER ROUNDUP FOR KANSAS
NATIONAL WEATHER SERVICE GOODLAND KS
700 PM CST SUN DEC 10 2017

NOTE:  "FAIR" INDICATES FEW OR NO CLOUDS BELOW 12,000 FEET WITH NO
SIGNIFICANT WEATHER AND/OR OBSTRUCTIONS TO VISIBILITY.

KSZ001>006-013>018-027>032-041>047-110200-
NORTHWEST KANSAS

CITY           SKY/WX    TMP DP  RH WIND       PRES   REMARKS
GOODLAND       CLOUDY    37   3  24 W7        30.26F
HAYS           CLEAR     44  14  29 W8        30.22S
HILL CITY      CLEAR     47  15  27 W8        30.22F
RUSSELL        CLEAR     47  16  29 W8        30.19S
$$

KSZ061>065-074>080-084>089-110200-
SOUTHWEST KANSAS

CITY           SKY/WX    TMP DP  RH WIND       PRES   REMARKS
DODGE CITY     CLEAR     45   7  21 W9        30.27S
ELKHART        CLOUDY    49  11  21 SE6       30.32F
GARDEN CITY    CLEAR     51   3  14 W6        30.27F
GREAT BEND     CLEAR     40  14  34 W10       30.22S WCI  33
LIBERAL        CLEAR     37   6  27 SW7       30.31S
PRATT          CLEAR     42  14  32 W12       30.23F
$$

KSZ066>073-081>083-090>101-110200-
SOUTHEAST KANSAS

CITY           SKY/WX    TMP DP  RH WIND       PRES   REMARKS
CHANUTE        CLEAR     44  23  43 W3        30.18S
COFFEYVILLE    CLEAR     47  23  38 SW3       30.19S
HUTCHINSON     CLEAR     44  15  31 CALM      30.20S
MEDICINE LODGE   N/A     55  16  21 W3        30.23S
NEWTON         CLEAR     52  15  23 W7        30.20S
PARSONS        CLEAR     40  23  50 CALM      30.20R
WICHITA INTL   PTCLDY    46  18  32 W7        30.20S
WICHITA JABRA  CLEAR     53  17  24 W8        30.20R
WICHITA MCCONL CLEAR     55  17  22 W3        30.20S
WINFIELD       CLEAR     47  18  31 W5        30.21F
$$

KSZ007>012-019>026-033>040-048>060-102>105-110200-
NORTHEAST KANSAS

CITY           SKY/WX    TMP DP  RH WIND       PRES   REMARKS
CONCORDIA      CLEAR     51  14  22 W10       30.15S
EMPORIA        CLEAR     47  17  30 W5        30.16S
LAWRENCE       CLEAR     37  23  56 CALM      30.15R HAZE
MANHATTAN      CLEAR     39  18  42 CALM      30.15S
MARYSVILLE     CLEAR     43  21  42 SW5       30.13S
OLATHE IND     CLEAR     43  24  47 CALM      30.15S
OLATHE EXE     CLEAR     43  24  47 W3        30.14S
SALINA         CLEAR     48  15  26 SW8       30.17F
TOPEKA BILLARD CLEAR     46  23  40 CALM      30.14S
TOPEKA FORBES  CLEAR     42  21  43 W3        30.14S
$$




USA.gov is the U.S. government's official web portal to all federal, state and local government web resources and services.